| time (UTC) | temp F | wind direction | speed knots | gust knots | rain 1hr in | rain 24hr in | rain mn in | humidity % | barometer mb |
| 20260906213015 | 89 | 123 | 3.5 | 8.7 | 0.00 | 0.00 | 0.00 | 41 | 1004.4 |
| 20260906212516 | 89 | 150 | 3.5 | 7.8 | 0.00 | 0.00 | 0.00 | 44 | 1004.4 |
| 20260906212013 | 89 | 127 | 2.6 | 9.6 | 0.00 | 0.00 | 0.00 | 43 | 1004.3 |
| 20260906211513 | 89 | 116 | 3.5 | 9.6 | 0.00 | 0.00 | 0.00 | 44 | 1004.4 |
| 20260906211011 | 88 | 190 | 5.2 | 9.6 | 0.00 | 0.00 | 0.00 | 42 | 1004.5 |
| 20260906210511 | 88 | 107 | 4.3 | 10.4 | 0.00 | 0.00 | 0.00 | 46 | 1004.5 |
| 20260906205511 | 88 | 136 | 5.2 | 9.6 | 0.00 | 0.00 | 0.00 | 44 | 1004.5 |
| 20260906205009 | 87 | 86 | 5.2 | 9.6 | 0.00 | 0.00 | 0.00 | 44 | 1004.5 |
| 20260906204509 | 87 | 111 | 3.5 | 8.7 | 0.00 | 0.00 | 0.00 | 42 | 1004.5 |
| 20260906204007 | 87 | 122 | 5.2 | 8.7 | 0.00 | 0.00 | 0.00 | 46 | 1004.6 |
| 20260906203507 | 87 | 116 | 3.5 | 7.8 | 0.00 | 0.00 | 0.00 | 43 | 1004.7 |
| 20260906203007 | 87 | 93 | 4.3 | 7.8 | 0.00 | 0.00 | 0.00 | 42 | 1004.7 |
| 20260906202505 | 87 | 144 | 3.5 | 9.6 | 0.00 | 0.00 | 0.00 | 43 | 1004.7 |
| 20260906202005 | 87 | 103 | 1.7 | 7.8 | 0.00 | 0.00 | 0.00 | 46 | 1004.8 |
| 20260906201504 | 86 | 129 | 4.3 | 8.7 | 0.00 | 0.00 | 0.00 | 48 | 1004.8 |
| 20260906201002 | 86 | 65 | 4.3 | 8.7 | 0.00 | 0.00 | 0.00 | 46 | 1004.8 |
| 20260906200504 | 86 | 133 | 4.3 | 9.6 | 0.00 | 0.00 | 0.00 | 46 | 1004.8 |
| 20260906195501 | 86 | 93 | 7.0 | 9.6 | 0.00 | 0.00 | 0.00 | 47 | 1004.9 |
| 20260906195059 | 85 | 192 | 0.9 | 7.0 | 0.00 | 0.00 | 0.00 | 49 | 1005.0 |
| 20260906194611 | 85 | 115 | 2.6 | 7.0 | 0.00 | 0.00 | 0.00 | 47 | 1005.0 |
| 20260906194200 | 85 | 94 | 4.3 | 7.8 | 0.00 | 0.00 | 0.00 | 47 | 1005.0 |
| 20260906193558 | 85 | 105 | 4.3 | 12.2 | 0.00 | 0.00 | 0.00 | 46 | 1005.1 |
| 20260906193057 | 85 | 109 | 3.5 | 7.8 | 0.00 | 0.00 | 0.00 | 48 | 1005.1 |
| 20260906192555 | 84 | 51 | 3.5 | 8.7 | 0.00 | 0.00 | 0.00 | 48 | 1005.2 |
| 20260906192055 | 84 | 62 | 5.2 | 12.2 | 0.00 | 0.00 | 0.00 | 45 | 1005.3 |
| 20260906191554 | 84 | 127 | 7.0 | 12.2 | 0.00 | 0.00 | 0.00 | 48 | 1005.4 |
| 20260906191051 | 84 | 130 | 4.3 | 8.7 | 0.00 | 0.00 | 0.00 | 51 | 1005.5 |
| 20260906190550 | 83 | 107 | 1.7 | 9.6 | 0.00 | 0.00 | 0.00 | 53 | 1005.6 |
| 20260906185552 | 83 | 87 | 3.5 | 10.4 | 0.00 | 0.00 | 0.00 | 51 | 1005.8 |
| 20260906185051 | 83 | 114 | 7.0 | 10.4 | 0.00 | 0.00 | 0.00 | 52 | 1005.9 |
| 20260906184548 | 82 | 36 | 1.7 | 7.0 | 0.00 | 0.00 | 0.00 | 54 | 1006.2 |
| 20260906184047 | 82 | 171 | 2.6 | 7.0 | 0.00 | 0.00 | 0.00 | 54 | 1006.3 |
| 20260906183545 | 82 | 103 | 1.7 | 7.0 | 0.00 | 0.00 | 0.00 | 55 | 1006.2 |
| 20260906183054 | 81 | 138 | 1.7 | 7.0 | 0.00 | 0.00 | 0.00 | 55 | 1006.4 |
| 20260906182542 | 81 | 110 | 3.5 | 7.0 | 0.00 | 0.00 | 0.00 | 57 | 1006.5 |
| 20260906182042 | 81 | 170 | 1.7 | 6.1 | 0.00 | 0.00 | 0.00 | 57 | 1006.6 |
| 20260906181542 | 81 | 187 | 3.5 | 6.1 | 0.00 | 0.00 | 0.00 | 59 | 1006.7 |
| 20260906181040 | 80 | 302 | 0.9 | 4.3 | 0.00 | 0.00 | 0.00 | 60 | 1006.8 |
| 20260906180539 | 79 | 206 | 1.7 | 7.8 | 0.00 | 0.00 | 0.00 | 60 | 1006.9 |
| 20260906175538 | 79 | 108 | 2.6 | 7.8 | 0.00 | 0.00 | 0.00 | 57 | 1007.1 |
| 20260906175038 | 79 | 76 | 2.6 | 8.7 | 0.00 | 0.00 | 0.00 | 57 | 1007.2 |
| 20260906174536 | 79 | 100 | 5.2 | 7.8 | 0.00 | 0.00 | 0.00 | 58 | 1007.1 |
| 20260906174036 | 79 | 76 | 1.7 | 7.0 | 0.00 | 0.00 | 0.00 | 60 | 1007.2 |
| 20260906173533 | 79 | 113 | 3.5 | 7.8 | 0.00 | 0.00 | 0.00 | 59 | 1007.5 |
| 20260906173032 | 79 | 99 | 1.7 | 8.7 | 0.00 | 0.00 | 0.00 | 61 | 1007.5 |
| 20260906172533 | 78 | 167 | 1.7 | 8.7 | 0.00 | 0.00 | 0.00 | 61 | 1007.6 |
| 20260906172029 | 78 | 138 | 3.5 | 8.7 | 0.00 | 0.00 | 0.00 | 62 | 1007.8 |
| 20260906171528 | 78 | 98 | 4.3 | 8.7 | 0.00 | 0.00 | 0.00 | 63 | 1007.9 |
| 20260906171026 | 78 | 127 | 4.3 | 7.8 | 0.00 | 0.00 | 0.00 | 62 | 1008.0 |
| 20260906170525 | 77 | 184 | 2.6 | 4.3 | 0.00 | 0.00 | 0.00 | 65 | 1008.0 |
| 20260906165524 | 77 | 174 | 2.6 | 7.0 | 0.00 | 0.00 | 0.00 | 64 | 1008.0 |
| 20260906165022 | 77 | 69 | 2.6 | 7.0 | 0.00 | 0.00 | 0.00 | 64 | 1008.0 |
| 20260906164521 | 76 | 98 | 0.9 | 7.0 | 0.00 | 0.00 | 0.00 | 65 | 1008.0 |
| 20260906164020 | 76 | 110 | 0.9 | 7.0 | 0.00 | 0.00 | 0.00 | 65 | 1008.1 |
| 20260906163520 | 76 | 106 | 2.6 | 6.1 | 0.00 | 0.00 | 0.00 | 66 | 1008.0 |
| 20260906163019 | 75 | 134 | 2.6 | 7.0 | 0.00 | 0.00 | 0.00 | 66 | 1008.0 |
| 20260906162519 | 75 | 128 | 2.6 | 7.0 | 0.00 | 0.00 | 0.00 | 65 | 1008.0 |
| 20260906162018 | 75 | 113 | 3.5 | 5.2 | 0.00 | 0.00 | 0.00 | 65 | 1008.0 |
| 20260906161518 | 75 | 34 | 0.9 | 7.0 | 0.00 | 0.00 | 0.00 | 66 | 1008.0 |
| 20260906161019 | 75 | 76 | 0.9 | 7.0 | 0.00 | 0.00 | 0.00 | 67 | 1008.0 |
| 20260906160518 | 74 | 51 | 0.0 | 4.3 | 0.00 | 0.00 | 0.00 | 67 | 1008.1 |
| 20260906155521 | 74 | 44 | 1.7 | 6.1 | 0.00 | 0.00 | 0.00 | 67 | 1008.2 |
| 20260906155018 | 74 | 64 | 0.9 | 7.0 | 0.00 | 0.00 | 0.00 | 67 | 1008.3 |
| 20260906154518 | 74 | 73 | 0.9 | 4.3 | 0.00 | 0.00 | 0.00 | 70 | 1008.2 |
| 20260906154018 | 73 | 16 | 0.0 | 5.2 | 0.00 | 0.00 | 0.00 | 70 | 1008.2 |
| 20260906153518 | 72 | 90 | 2.6 | 5.2 | 0.00 | 0.00 | 0.00 | 71 | 1008.3 |
| 20260906153022 | 71 | 69 | 0.9 | 4.3 | 0.00 | 0.00 | 0.00 | 71 | 1008.4 |
| 20260906152517 | 71 | 84 | 0.9 | 6.1 | 0.00 | 0.00 | 0.00 | 70 | 1008.4 |
| 20260906152017 | 72 | 114 | 3.5 | 6.1 | 0.00 | 0.00 | 0.00 | 70 | 1008.4 |
| 20260906151517 | 71 | 82 | 0.9 | 5.2 | 0.00 | 0.00 | 0.00 | 72 | 1008.5 |
| 20260906151018 | 71 | 75 | 1.7 | 5.2 | 0.00 | 0.00 | 0.00 | 72 | 1008.6 |
| 20260906150517 | 71 | 355 | 1.7 | 4.3 | 0.00 | 0.00 | 0.00 | 73 | 1008.6 |
| 20260906145521 | 70 | 15 | 0.9 | 3.5 | 0.00 | 0.00 | 0.00 | 73 | 1008.7 |
| 20260906145023 | 69 | 36 | 0.9 | 3.5 | 0.00 | 0.00 | 0.00 | 75 | 1008.6 |
| 20260906144518 | 69 | 76 | 0.9 | 4.3 | 0.00 | 0.00 | 0.00 | 76 | 1008.6 |
| 20260906144015 | 68 | 60 | 1.7 | 3.5 | 0.00 | 0.00 | 0.00 | 78 | 1008.7 |
| 20260906143520 | 67 | 338 | 0.0 | 1.7 | 0.00 | 0.00 | 0.00 | 78 | 1008.7 |
| 20260906143018 | 66 | 330 | 0.0 | 2.6 | 0.00 | 0.00 | 0.00 | 78 | 1008.6 |
| 20260906142515 | 66 | 330 | 0.9 | 2.6 | 0.00 | 0.00 | 0.00 | 78 | 1008.7 |
| 20260906142015 | 66 | 330 | 0.9 | 4.3 | 0.00 | 0.00 | 0.00 | 78 | 1008.7 |
| 20260906141514 | 66 | 330 | 1.7 | 4.3 | 0.00 | 0.00 | 0.00 | 78 | 1008.7 |
| 20260906141014 | 65 | 288 | 1.7 | 3.5 | 0.00 | 0.00 | 0.00 | 79 | 1008.7 |
| 20260906140515 | 65 | 290 | 1.7 | 4.3 | 0.00 | 0.00 | 0.00 | 79 | 1008.7 |
| 20260906135515 | 64 | 304 | 1.7 | 4.3 | 0.00 | 0.00 | 0.00 | 81 | 1008.6 |
| 20260906135014 | 63 | 296 | 1.7 | 4.3 | 0.00 | 0.00 | 0.00 | 83 | 1008.6 |
| 20260906134515 | 63 | 307 | 1.7 | 4.3 | 0.00 | 0.00 | 0.00 | 85 | 1008.7 |
| 20260906134014 | 63 | 296 | 2.6 | 4.3 | 0.00 | 0.00 | 0.00 | 85 | 1008.7 |
| 20260906133513 | 63 | 344 | 0.9 | 2.6 | 0.00 | 0.00 | 0.00 | 86 | 1008.6 |
| 20260906133013 | 62 | 346 | 0.0 | 2.6 | 0.00 | 0.00 | 0.00 | 86 | 1008.5 |
| 20260906132514 | 62 | 346 | 0.9 | 2.6 | 0.00 | 0.00 | 0.00 | 86 | 1008.4 |
| 20260906132013 | 62 | 346 | 0.9 | 2.6 | 0.00 | 0.00 | 0.00 | 86 | 1008.4 |
| 20260906131513 | 62 | 346 | 0.0 | 2.6 | 0.00 | 0.00 | 0.00 | 86 | 1008.3 |
| 20260906131012 | 62 | 341 | 0.0 | 2.6 | 0.00 | 0.00 | 0.00 | 86 | 1008.4 |
| 20260906130512 | 61 | 335 | 0.0 | 2.6 | 0.00 | 0.00 | 0.00 | 86 | 1008.2 |
| 20260906125512 | 61 | 360 | 0.0 | 2.6 | 0.00 | 0.00 | 0.00 | 86 | 1008.4 |
| 20260906125012 | 61 | 360 | 0.9 | 2.6 | 0.00 | 0.00 | 0.00 | 86 | 1008.4 |
| 20260906124513 | 61 | 360 | 0.0 | 1.7 | 0.00 | 0.00 | 0.00 | 86 | 1008.2 |
| 20260906124014 | 61 | 360 | 0.9 | 2.6 | 0.00 | 0.00 | 0.00 | 85 | 1008.3 |
| 20260906123511 | 61 | 360 | 0.0 | 2.6 | 0.00 | 0.00 | 0.00 | 85 | 1008.3 |
| 20260906123014 | 61 | 360 | 0.9 | 2.6 | 0.00 | 0.00 | 0.00 | 85 | 1008.4 |
| 20260906122510 | 61 | 360 | 0.0 | 2.6 | 0.00 | 0.00 | 0.00 | 83 | 1008.5 |
| 20260906122014 | 61 | 360 | 0.9 | 2.6 | 0.00 | 0.00 | 0.00 | 84 | 1008.5 |
| 20260906121510 | 61 | 360 | 0.9 | 2.6 | 0.00 | 0.00 | 0.00 | 84 | 1008.3 |
| 20260906121008 | 62 | 360 | 0.9 | 2.6 | 0.00 | 0.00 | 0.00 | 84 | 1008.3 |
| 20260906120510 | 62 | 360 | 0.9 | 1.7 | 0.00 | 0.00 | 0.00 | 83 | 1008.4 |
| 20260906120006 | 62 | 360 | 0.0 | 1.7 | 0.00 | 0.00 | 0.00 | 83 | 1008.4 |
| 20260906115507 | 62 | 360 | 0.0 | 1.7 | 0.00 | 0.00 | 0.00 | 83 | 1008.3 |
| 20260906115005 | 63 | 360 | 0.0 | 1.7 | 0.00 | 0.00 | 0.00 | 82 | 1008.3 |
| 20260906114504 | 63 | 360 | 0.9 | 2.6 | 0.00 | 0.00 | 0.00 | 83 | 1008.5 |
| 20260906114005 | 63 | 360 | 1.7 | 2.6 | 0.00 | 0.00 | 0.00 | 83 | 1008.3 |
| 20260906113502 | 64 | 57 | 0.0 | 0.9 | 0.00 | 0.00 | 0.00 | 83 | 1008.3 |
| 20260906112502 | 64 | 58 | 0.0 | 1.7 | 0.00 | 0.00 | 0.00 | 83 | 1008.2 |
| 20260906112002 | 64 | 58 | 0.0 | 2.6 | 0.00 | 0.00 | 0.00 | 83 | 1008.1 |
| 20260906111502 | 64 | 57 | 0.9 | 2.6 | 0.00 | 0.00 | 0.00 | 84 | 1008.1 |
| 20260906111002 | 64 | 79 | 0.9 | 1.7 | 0.00 | 0.00 | 0.00 | 83 | 1008.1 |
| 20260906110601 | 64 | 80 | 0.9 | 1.7 | 0.00 | 0.00 | 0.00 | 82 | 1008.2 |
| 20260906105700 | 64 | 81 | 0.0 | 1.7 | 0.00 | 0.00 | 0.00 | 82 | 1008.1 |
| 20260906105059 | 64 | 80 | 0.9 | 1.7 | 0.00 | 0.00 | 0.00 | 82 | 1008.0 |
| 20260906104600 | 65 | 82 | 0.0 | 2.6 | 0.00 | 0.00 | 0.00 | 81 | 1007.8 |
| 20260906104059 | 65 | 82 | 0.9 | 3.5 | 0.00 | 0.00 | 0.00 | 81 | 1008.0 |
| 20260906103558 | 64 | 80 | 1.7 | 7.0 | 0.00 | 0.00 | 0.00 | 82 | 1008.0 |
| 20260906102557 | 64 | 65 | 2.6 | 3.5 | 0.00 | 0.00 | 0.00 | 77 | 1008.0 |
| 20260906102057 | 64 | 330 | 0.0 | 0.0 | 0.00 | 0.00 | 0.00 | 75 | 1008.0 |
| 20260906101556 | 64 | 331 | 0.0 | 0.0 | 0.00 | 0.00 | 0.00 | 75 | 1008.1 |
| 20260906101056 | 65 | 332 | 0.0 | 1.7 | 0.00 | 0.00 | 0.00 | 75 | 1008.1 |
| 20260906100557 | 65 | 360 | 0.0 | 1.7 | 0.00 | 0.00 | 0.00 | 74 | 1008.1 |
| 20260906100053 | 65 | 332 | 0.0 | 2.6 | 0.00 | 0.00 | 0.00 | 73 | 1008.0 |
| 20260906095554 | 65 | 332 | 0.0 | 3.5 | 0.00 | 0.00 | 0.00 | 73 | 1008.0 |
| 20260906095053 | 65 | 332 | 0.9 | 3.5 | 0.00 | 0.00 | 0.00 | 73 | 1008.0 |
| 20260906094606 | 65 | 331 | 0.0 | 2.6 | 0.00 | 0.00 | 0.00 | 73 | 1007.9 |
| 20260906094052 | 65 | 296 | 0.9 | 3.5 | 0.00 | 0.00 | 0.00 | 73 | 1007.8 |
| 20260906093552 | 65 | 329 | 1.7 | 3.5 | 0.00 | 0.00 | 0.00 | 73 | 1007.7 |
| 20260906092553 | 66 | 329 | 0.9 | 2.6 | 0.00 | 0.00 | 0.00 | 72 | 1007.5 |
| 20260906092052 | 66 | 329 | 0.9 | 2.6 | 0.00 | 0.00 | 0.00 | 72 | 1007.4 |
| 20260906091549 | 66 | 329 | 0.9 | 2.6 | 0.00 | 0.00 | 0.00 | 71 | 1007.5 |
| 20260906091048 | 67 | 329 | 0.0 | 2.6 | 0.00 | 0.00 | 0.00 | 71 | 1007.4 |
| 20260906090547 | 67 | 329 | 0.9 | 2.6 | 0.00 | 0.00 | 0.00 | 70 | 1007.3 |
| 20260906090111 | 67 | 329 | 0.9 | 2.6 | 0.00 | 0.00 | 0.00 | 70 | 1007.3 |
| 20260906085549 | 67 | 330 | 0.9 | 2.6 | 0.00 | 0.00 | 0.00 | 70 | 1007.2 |
| 20260906085046 | 67 | 317 | 0.0 | 3.5 | 0.00 | 0.00 | 0.00 | 69 | 1007.3 |
| 20260906084553 | 67 | 300 | 0.9 | 3.5 | 0.00 | 0.00 | 0.00 | 69 | 1007.1 |
| 20260906084047 | 67 | 355 | 1.7 | 3.5 | 0.00 | 0.00 | 0.00 | 69 | 1007.2 |
| 20260906083545 | 67 | 325 | 0.9 | 5.2 | 0.00 | 0.00 | 0.00 | 69 | 1007.1 |
| 20260906082545 | 67 | 360 | 0.9 | 3.5 | 0.00 | 0.00 | 0.00 | 69 | 1007.3 |
| 20260906082046 | 67 | 355 | 0.9 | 3.5 | 0.00 | 0.00 | 0.00 | 69 | 1007.5 |
| 20260906081546 | 67 | 318 | 1.7 | 3.5 | 0.00 | 0.00 | 0.00 | 68 | 1007.6 |
| 20260906081045 | 68 | 325 | 0.9 | 2.6 | 0.00 | 0.00 | 0.00 | 68 | 1007.5 |
| 20260906080544 | 68 | 325 | 0.9 | 4.3 | 0.00 | 0.00 | 0.00 | 67 | 1007.4 |
| 20260906080044 | 68 | 325 | 1.7 | 5.2 | 0.00 | 0.00 | 0.00 | 67 | 1007.6 |
| 20260906075544 | 68 | 13 | 1.7 | 5.2 | 0.00 | 0.00 | 0.00 | 67 | 1007.3 |
| 20260906075044 | 68 | 30 | 1.7 | 5.2 | 0.00 | 0.00 | 0.00 | 67 | 1007.3 |
| 20260906074551 | 67 | 46 | 0.9 | 5.2 | 0.00 | 0.00 | 0.00 | 67 | 1007.4 |
| 20260906074044 | 68 | 5 | 1.7 | 3.5 | 0.00 | 0.00 | 0.00 | 67 | 1007.3 |
| 20260906073546 | 68 | 18 | 0.9 | 4.3 | 0.00 | 0.00 | 0.00 | 67 | 1007.5 |
| 20260906072543 | 68 | 27 | 1.7 | 5.2 | 0.00 | 0.00 | 0.00 | 66 | 1007.5 |
| 20260906072042 | 68 | 355 | 1.7 | 5.2 | 0.00 | 0.00 | 0.00 | 64 | 1007.6 |
| 20260906071541 | 69 | 339 | 0.9 | 2.6 | 0.00 | 0.00 | 0.00 | 63 | 1007.6 |
| 20260906071041 | 69 | 335 | 0.9 | 3.5 | 0.00 | 0.00 | 0.00 | 62 | 1007.8 |
| 20260906070542 | 69 | 298 | 0.9 | 3.5 | 0.00 | 0.00 | 0.00 | 62 | 1008.0 |
| 20260906070042 | 69 | 293 | 0.9 | 3.5 | 0.00 | 0.00 | 0.00 | 62 | 1008.0 |
| 20260906065541 | 69 | 315 | 1.7 | 2.6 | 0.00 | 0.00 | 0.00 | 62 | 1007.9 |
| 20260906065041 | 69 | 315 | 0.9 | 1.7 | 0.00 | 0.00 | 0.00 | 62 | 1007.8 |
| 20260906064543 | 69 | 314 | 0.0 | 2.6 | 0.00 | 0.00 | 0.00 | 63 | 1007.8 |
| 20260906064040 | 69 | 314 | 0.9 | 2.6 | 0.00 | 0.00 | 0.00 | 64 | 1007.8 |
| 20260906063540 | 69 | 314 | 0.0 | 0.0 | 0.00 | 0.00 | 0.00 | 63 | 1008.1 |
| 20260906062538 | 70 | 314 | 0.0 | 0.9 | 0.00 | 0.00 | 0.00 | 62 | 1007.7 |
| 20260906062040 | 70 | 314 | 0.0 | 3.5 | 0.00 | 0.00 | 0.00 | 61 | 1007.8 |
| 20260906061547 | 70 | 314 | 0.9 | 3.5 | 0.00 | 0.00 | 0.00 | 61 | 1007.7 |
| 20260906061037 | 70 | 321 | 1.7 | 3.5 | 0.00 | 0.00 | 0.00 | 60 | 1007.7 |
| 20260906060540 | 70 | 321 | 1.7 | 3.5 | 0.00 | 0.00 | 0.00 | 60 | 1007.6 |
| 20260906060037 | 70 | 9 | 0.9 | 4.3 | 0.00 | 0.00 | 0.00 | 59 | 1007.5 |
| 20260906055538 | 70 | 327 | 2.6 | 4.3 | 0.00 | 0.00 | 0.00 | 60 | 1007.3 |
| 20260906055039 | 70 | 314 | 1.7 | 2.6 | 0.00 | 0.00 | 0.00 | 59 | 1007.5 |
| 20260906054541 | 70 | 306 | 0.9 | 2.6 | 0.00 | 0.00 | 0.00 | 59 | 1007.4 |
| 20260906054035 | 70 | 306 | 0.0 | 2.6 | 0.00 | 0.00 | 0.00 | 57 | 1007.5 |
| 20260906053533 | 71 | 306 | 1.7 | 2.6 | 0.00 | 0.00 | 0.00 | 56 | 1007.4 |
| 20260906052535 | 72 | 37 | 0.0 | 1.7 | 0.00 | 0.00 | 0.00 | 55 | 1007.5 |
| 20260906052032 | 72 | 37 | 0.0 | 4.3 | 0.00 | 0.00 | 0.00 | 55 | 1007.3 |
| 20260906051537 | 72 | 37 | 0.0 | 4.3 | 0.00 | 0.00 | 0.00 | 54 | 1007.2 |
| 20260906051033 | 72 | 65 | 0.0 | 5.2 | 0.00 | 0.00 | 0.00 | 53 | 1007.2 |
| 20260906050530 | 72 | 61 | 0.9 | 5.2 | 0.00 | 0.00 | 0.00 | 52 | 1007.1 |
| 20260906050029 | 72 | 89 | 0.9 | 6.1 | 0.00 | 0.00 | 0.00 | 51 | 1006.9 |
| 20260906045529 | 72 | 76 | 0.0 | 3.5 | 0.00 | 0.00 | 0.00 | 50 | 1006.8 |
| 20260906045031 | 72 | 76 | 0.0 | 7.0 | 0.00 | 0.00 | 0.00 | 49 | 1006.7 |
| 20260906044527 | 73 | 78 | 3.5 | 7.0 | 0.00 | 0.00 | 0.00 | 48 | 1006.8 |
| 20260906044030 | 73 | 315 | 0.0 | 2.6 | 0.00 | 0.00 | 0.00 | 49 | 1006.5 |
| 20260906043525 | 73 | 314 | 1.7 | 4.3 | 0.00 | 0.00 | 0.00 | 49 | 1006.5 |
| 20260906042524 | 74 | 343 | 1.7 | 3.5 | 0.00 | 0.00 | 0.00 | 48 | 1006.5 |
| 20260906042024 | 74 | 26 | 0.9 | 3.5 | 0.00 | 0.00 | 0.00 | 48 | 1006.5 |
| 20260906041533 | 74 | 312 | 0.9 | 2.6 | 0.00 | 0.00 | 0.00 | 47 | 1006.4 |
| 20260906041022 | 75 | 312 | 0.0 | 1.7 | 0.00 | 0.00 | 0.00 | 47 | 1006.4 |
| 20260906040520 | 75 | 311 | 0.0 | 2.6 | 0.00 | 0.00 | 0.00 | 46 | 1006.3 |
| 20260906040021 | 75 | 311 | 0.9 | 3.5 | 0.00 | 0.00 | 0.00 | 46 | 1006.3 |
| 20260906035522 | 75 | 304 | 1.7 | 5.2 | 0.00 | 0.00 | 0.00 | 45 | 1006.2 |
| 20260906035019 | 75 | 290 | 2.6 | 3.5 | 0.00 | 0.00 | 0.00 | 46 | 1006.2 |
| 20260906034518 | 76 | 355 | 0.9 | 5.2 | 0.00 | 0.00 | 0.00 | 46 | 1006.3 |
| 20260906034018 | 76 | 355 | 0.9 | 5.2 | 0.00 | 0.00 | 0.00 | 45 | 1006.3 |
| 20260906033517 | 76 | 336 | 1.7 | 7.0 | 0.00 | 0.00 | 0.00 | 45 | 1006.2 |
| 20260906032618 | 76 | 313 | 3.5 | 5.2 | 0.00 | 0.00 | 0.00 | 45 | 1006.3 |
| 20260906032017 | 76 | 355 | 1.7 | 5.2 | 0.00 | 0.00 | 0.00 | 46 | 1006.3 |
| 20260906031519 | 76 | 311 | 2.6 | 5.2 | 0.00 | 0.00 | 0.00 | 45 | 1006.2 |
| 20260906031016 | 77 | 62 | 0.9 | 5.2 | 0.00 | 0.00 | 0.00 | 45 | 1006.3 |
| 20260906030515 | 77 | 46 | 2.6 | 5.2 | 0.00 | 0.00 | 0.00 | 45 | 1006.3 |
| 20260906030013 | 77 | 9 | 2.6 | 5.2 | 0.00 | 0.00 | 0.00 | 44 | 1006.0 |
| 20260906025517 | 77 | 51 | 1.7 | 5.2 | 0.00 | 0.00 | 0.00 | 43 | 1005.9 |
| 20260906025012 | 78 | 11 | 1.7 | 5.2 | 0.00 | 0.00 | 0.00 | 43 | 1005.7 |
| 20260906024511 | 78 | 40 | 1.7 | 5.2 | 0.00 | 0.00 | 0.00 | 42 | 1005.8 |
| 20260906024011 | 78 | 22 | 0.9 | 4.3 | 0.00 | 0.00 | 0.00 | 42 | 1005.8 |
| 20260906023509 | 79 | 329 | 1.7 | 5.2 | 0.00 | 0.00 | 0.00 | 41 | 1005.9 |
| 20260906022508 | 79 | 10 | 0.9 | 10.4 | 0.00 | 0.00 | 0.00 | 40 | 1005.6 |
| 20260906022007 | 80 | 360 | 3.5 | 10.4 | 0.00 | 0.00 | 0.00 | 41 | 1005.8 |
| 20260906021506 | 80 | 61 | 0.9 | 4.3 | 0.00 | 0.00 | 0.00 | 40 | 1005.5 |
| 20260906021006 | 80 | 340 | 1.7 | 6.1 | 0.00 | 0.00 | 0.00 | 39 | 1005.2 |
| 20260906020504 | 81 | 292 | 2.6 | 7.8 | 0.00 | 0.00 | 0.00 | 39 | 1005.1 |
| 20260906020004 | 81 | 272 | 3.5 | 7.8 | 0.00 | 0.00 | 0.00 | 39 | 1005.1 |
| 20260906015502 | 81 | 283 | 4.3 | 9.6 | 0.00 | 0.00 | 0.00 | 38 | 1005.0 |
| 20260906015002 | 81 | 301 | 5.2 | 10.4 | 0.00 | 0.00 | 0.00 | 38 | 1004.8 |
| 20260906014505 | 81 | 291 | 4.3 | 10.4 | 0.00 | 0.00 | 0.00 | 38 | 1004.9 |
| 20260906014001 | 82 | 307 | 4.3 | 10.4 | 0.00 | 0.00 | 0.00 | 38 | 1004.8 |
| 20260906013501 | 82 | 285 | 5.2 | 9.6 | 0.00 | 0.00 | 0.00 | 37 | 1004.8 |
| 20260906012603 | 82 | 306 | 4.3 | 7.8 | 0.00 | 0.00 | 0.00 | 37 | 1004.9 |
| 20260906012100 | 82 | 300 | 5.2 | 8.7 | 0.00 | 0.00 | 0.00 | 37 | 1004.9 |
| 20260906011602 | 82 | 316 | 4.3 | 8.7 | 0.00 | 0.00 | 0.00 | 37 | 1004.9 |
| 20260906011059 | 82 | 266 | 2.6 | 8.7 | 0.00 | 0.00 | 0.00 | 37 | 1004.8 |
| 20260906010558 | 82 | 263 | 4.3 | 10.4 | 0.00 | 0.00 | 0.00 | 37 | 1004.9 |
| 20260906010128 | 82 | 279 | 4.3 | 10.4 | 0.00 | 0.00 | 0.00 | 37 | 1004.8 |
| 20260906005559 | 83 | 287 | 5.2 | 9.6 | 0.00 | 0.00 | 0.00 | 36 | 1004.9 |
| 20260906005055 | 83 | 281 | 5.2 | 11.3 | 0.00 | 0.00 | 0.00 | 36 | 1004.8 |
| 20260906004555 | 83 | 277 | 6.1 | 11.3 | 0.00 | 0.00 | 0.00 | 36 | 1004.8 |
| 20260906004053 | 84 | 298 | 7.0 | 12.2 | 0.00 | 0.00 | 0.00 | 36 | 1004.8 |
| 20260906003555 | 84 | 293 | 4.3 | 13.9 | 0.00 | 0.00 | 0.00 | 35 | 1004.9 |
| 20260906002551 | 85 | 288 | 7.8 | 14.8 | 0.00 | 0.00 | 0.00 | 34 | 1004.8 |
| 20260906002053 | 86 | 285 | 9.6 | 19.1 | 0.00 | 0.00 | 0.00 | 33 | 1004.8 |
| 20260906001602 | 87 | 226 | 7.8 | 19.1 | 0.00 | 0.00 | 0.00 | 31 | 1004.7 |
| 20260906001047 | 88 | 5 | 9.6 | 15.6 | 0.00 | 0.00 | 0.00 | 30 | 1004.7 |
| 20260906000547 | 88 | 314 | 6.1 | 12.2 | 0.00 | 0.00 | 0.00 | 30 | 1004.8 |
| 20260906000046 | 88 | 268 | 7.8 | 12.2 | 0.00 | 0.00 | 0.00 | 30 | 1004.7 |
| 20260905235545 | 89 | 279 | 3.5 | 8.7 | 0.00 | 0.00 | 0.00 | 30 | 1004.6 |
| 20260905235045 | 89 | 288 | 1.7 | 5.2 | 0.00 | 0.00 | 0.00 | 30 | 1004.6 |
| 20260905234546 | 90 | 276 | 2.6 | 5.2 | 0.00 | 0.00 | 0.00 | 29 | 1004.5 |
| 20260905234044 | 90 | 117 | 0.0 | 1.7 | 0.00 | 0.00 | 0.00 | 31 | 1004.5 |
| 20260905233544 | 90 | 115 | 0.0 | 3.5 | 0.00 | 0.00 | 0.00 | 31 | 1004.5 |
| 20260905232546 | 91 | 115 | 0.0 | 5.2 | 0.00 | 0.00 | 0.00 | 33 | 1004.3 |
| 20260905232043 | 91 | 115 | 1.7 | 6.1 | 0.00 | 0.00 | 0.00 | 30 | 1004.2 |
| 20260905231546 | 91 | 101 | 0.9 | 5.2 | 0.00 | 0.00 | 0.00 | 31 | 1004.2 |
| 20260905231042 | 92 | 98 | 0.0 | 3.5 | 0.00 | 0.00 | 0.00 | 29 | 1004.0 |
| 20260905230544 | 92 | 98 | 2.6 | 6.1 | 0.00 | 0.00 | 0.00 | 27 | 1003.9 |
| 20260905230048 | 92 | 110 | 0.9 | 7.8 | 0.00 | 0.00 | 0.00 | 25 | 1003.9 |
| 20260905225541 | 92 | 103 | 5.2 | 7.8 | 0.00 | 0.00 | 0.00 | 25 | 1003.9 |
| 20260905225041 | 93 | 82 | 6.1 | 9.6 | 0.00 | 0.00 | 0.00 | 25 | 1003.8 |
| 20260905224545 | 93 | 111 | 7.0 | 9.6 | 0.00 | 0.00 | 0.00 | 25 | 1003.8 |
| 20260905224040 | 93 | 90 | 2.6 | 9.6 | 0.00 | 0.00 | 0.00 | 25 | 1003.8 |
| 20260905223541 | 93 | 109 | 7.0 | 10.4 | 0.00 | 0.00 | 0.00 | 25 | 1003.8 |
| 20260905222541 | 93 | 64 | 7.8 | 12.2 | 0.00 | 0.00 | 0.00 | 26 | 1003.8 |
| 20260905222039 | 93 | 88 | 6.1 | 8.7 | 0.00 | 0.00 | 0.00 | 25 | 1003.9 |
| 20260905221550 | 93 | 123 | 5.2 | 8.7 | 0.00 | 0.00 | 0.00 | 26 | 1003.9 |
| 20260905221040 | 93 | 68 | 5.2 | 18.2 | 0.00 | 0.00 | 0.00 | 26 | 1003.9 |
| 20260905220539 | 93 | 98 | 7.0 | 18.2 | 0.00 | 0.00 | 0.00 | 26 | 1003.9 |
| 20260905220039 | 93 | 87 | 4.3 | 11.3 | 0.00 | 0.00 | 0.00 | 26 | 1004.0 |
| 20260905215538 | 93 | 103 | 5.2 | 11.3 | 0.00 | 0.00 | 0.00 | 25 | 1004.2 |
| 20260905215038 | 94 | 121 | 7.8 | 11.3 | 0.00 | 0.00 | 0.00 | 25 | 1004.2 |
| 20260905214536 | 94 | 5 | 5.2 | 9.6 | 0.00 | 0.00 | 0.00 | 24 | 1004.3 |
| 20260905214037 | 94 | 94 | 4.3 | 12.2 | 0.00 | 0.00 | 0.00 | 25 | 1004.4 |
| 20260905213536 | 94 | 92 | 4.3 | 14.8 | 0.00 | 0.00 | 0.00 | 23 | 1004.4 |